Location: SE Lincoln, NE
(40.7805°N, 96.6275°W)
Time: 07:47:31
(UTC-05:00)

Meteor 1-5 Rocket - Pass Details

Date: 15 May 2021
Orbit: 788 x 916 km, 81.2° (Epoch: 20 June)

Event Time Altitude Azimuth Distance (km) Brightness Sun altitude
Rises 22:01:01 0° 352° (N) 3,319 8.1 -14.0°
Reaches altitude 10° 22:03:27 10° 355° (N) 2,374 7.2 -14.3°
Maximum altitude 22:08:46 70° 79° (E) 840 4.0 -15.0°
Enters shadow 22:12:20 21° 160° (SSE) 1,712 5.3 -15.5°
